Time,TemperatureF,DewpointF,PressureIn,WindDirection,WindDirectionDegrees,WindSpeedMPH,WindSpeedGustMPH,Humidity,HourlyPrecipIn,Conditions,Clouds,dailyrainin,SoftwareType,DateUTC
2013-02-05 00:01:00,21.1,7.0,29.97,WSW,245,0.0,-999.0,55,-99.99,,,0.00,weatherlink.com 1.10,2013-02-05 05:01:00,
2013-02-05 00:16:00,21.0,7.0,29.98,WSW,245,0.0,-999.0,56,-99.99,,,0.00,weatherlink.com 1.10,2013-02-05 05:16:00,
2013-02-05 00:31:00,21.2,8.0,29.98,WSW,245,0.0,-999.0,56,-99.99,,,0.00,weatherlink.com 1.10,2013-02-05 05:31:00,
2013-02-05 00:47:00,21.5,8.0,29.97,WSW,245,0.0,-999.0,56,-99.99,,,0.00,weatherlink.com 1.10,2013-02-05 05:47:00,
2013-02-05 01:01:00,21.5,8.0,29.96,WSW,245,0.0,-999.0,57,-99.99,,,0.00,weatherlink.com 1.10,2013-02-05 06:01:00,
2013-02-05 01:16:00,21.5,9.0,29.96,WSW,245,0.0,-999.0,58,-99.99,,,0.00,weatherlink.com 1.10,2013-02-05 06:16:00,
2013-02-05 01:31:00,21.3,9.0,29.96,WSW,245,0.0,-999.0,59,-99.99,,,0.00,weatherlink.com 1.10,2013-02-05 06:31:00,
2013-02-05 01:46:00,21.3,9.0,29.97,WSW,245,0.0,-999.0,59,-99.99,,,0.00,weatherlink.com 1.10,2013-02-05 06:46:00,
2013-02-05 02:02:00,21.4,9.0,29.97,WSW,245,0.0,-999.0,58,-99.99,,,0.00,weatherlink.com 1.10,2013-02-05 07:02:00,
2013-02-05 02:16:00,21.5,10.0,29.97,WSW,245,0.0,-999.0,61,-99.99,,,0.00,weatherlink.com 1.10,2013-02-05 07:16:00,
2013-02-05 02:31:00,21.5,10.0,29.97,WSW,245,1.0,-999.0,61,-99.99,,,0.00,weatherlink.com 1.10,2013-02-05 07:31:00,
2013-02-05 02:46:00,21.5,10.0,29.97,WSW,245,0.0,-999.0,62,-99.99,,,0.00,weatherlink.com 1.10,2013-02-05 07:46:00,
2013-02-05 03:02:00,21.5,9.0,29.97,WSW,245,0.0,-999.0,60,-99.99,,,0.00,weatherlink.com 1.10,2013-02-05 08:02:00,
2013-02-05 03:16:00,21.5,10.0,29.97,WSW,245,0.0,-999.0,62,-99.99,,,0.00,weatherlink.com 1.10,2013-02-05 08:16:00,
2013-02-05 03:32:00,21.4,12.0,29.96,WSW,245,0.0,-999.0,66,-99.99,,,0.00,weatherlink.com 1.10,2013-02-05 08:32:00,
2013-02-05 03:46:00,21.3,13.0,29.96,WSW,245,0.0,-999.0,69,-99.99,,,0.00,weatherlink.com 1.10,2013-02-05 08:46:00,
2013-02-05 04:01:00,21.2,13.0,29.96,WSW,245,0.0,-999.0,72,-99.99,,,0.00,weatherlink.com 1.10,2013-02-05 09:01:00,
2013-02-05 04:17:00,21.1,14.0,29.96,WSW,245,0.0,-999.0,74,-99.99,,,0.00,weatherlink.com 1.10,2013-02-05 09:17:00,
2013-02-05 04:31:00,21.0,14.0,29.96,WSW,245,0.0,-999.0,75,-99.99,,,0.00,weatherlink.com 1.10,2013-02-05 09:31:00,
2013-02-05 04:47:00,21.1,15.0,29.96,WSW,245,0.0,-999.0,77,-99.99,,,0.00,weatherlink.com 1.10,2013-02-05 09:47:00,
2013-02-05 05:01:00,21.1,15.0,29.96,WSW,245,0.0,-999.0,78,-99.99,,,0.00,weatherlink.com 1.10,2013-02-05 10:01:00,
2013-02-05 05:17:00,21.1,15.0,29.96,WSW,245,0.0,-999.0,78,-99.99,,,0.00,weatherlink.com 1.10,2013-02-05 10:17:00,
2013-02-05 05:31:00,21.1,16.0,29.96,WSW,245,0.0,-999.0,79,-99.99,,,0.00,weatherlink.com 1.10,2013-02-05 10:31:00,
2013-02-05 05:46:00,21.1,16.0,29.96,WSW,245,0.0,-999.0,80,-99.99,,,0.00,weatherlink.com 1.10,2013-02-05 10:46:00,
2013-02-05 06:01:00,21.0,16.0,29.98,WSW,245,0.0,-999.0,80,-99.99,,,0.00,weatherlink.com 1.10,2013-02-05 11:01:00,
2013-02-05 06:17:00,21.1,16.0,29.97,WSW,245,0.0,-999.0,80,-99.99,,,0.00,weatherlink.com 1.10,2013-02-05 11:17:00,
2013-02-05 06:32:00,21.1,16.0,29.97,WSW,245,0.0,-999.0,80,-99.99,,,0.00,weatherlink.com 1.10,2013-02-05 11:32:00,
2013-02-05 06:46:00,20.9,16.0,29.97,WSW,245,0.0,-999.0,80,-99.99,,,0.00,weatherlink.com 1.10,2013-02-05 11:46:00,
2013-02-05 07:01:00,20.9,16.0,29.98,SW,235,0.0,-999.0,80,-99.99,,,0.00,weatherlink.com 1.10,2013-02-05 12:01:00,
2013-02-05 07:16:00,20.9,16.0,29.98,SW,235,1.0,-999.0,80,-99.99,,,0.00,weatherlink.com 1.10,2013-02-05 12:16:00,
2013-02-05 07:32:00,21.0,16.0,29.99,SW,235,0.0,-999.0,81,-99.99,,,0.00,weatherlink.com 1.10,2013-02-05 12:32:00,
2013-02-05 07:46:00,21.0,16.0,29.99,SE,132,0.0,-999.0,80,-99.99,,,0.00,weatherlink.com 1.10,2013-02-05 12:46:00,
2013-02-05 08:02:00,21.2,16.0,29.99,ENE,70,2.0,-999.0,79,-99.99,,,0.00,weatherlink.com 1.10,2013-02-05 13:02:00,
2013-02-05 08:17:00,21.3,16.0,30.00,NE,44,1.0,-999.0,79,-99.99,,,0.00,weatherlink.com 1.10,2013-02-05 13:17:00,
2013-02-05 08:31:00,21.4,16.0,30.00,NE,45,0.0,-999.0,79,-99.99,,,0.00,weatherlink.com 1.10,2013-02-05 13:31:00,
2013-02-05 08:46:00,21.5,16.0,30.00,NE,43,0.0,-999.0,78,-99.99,,,0.00,weatherlink.com 1.10,2013-02-05 13:46:00,
2013-02-05 09:01:00,21.6,16.0,30.00,NE,43,0.0,-999.0,79,-99.99,,,0.00,weatherlink.com 1.10,2013-02-05 14:01:00,
2013-02-05 09:16:00,21.8,16.0,30.00,NE,43,0.0,-999.0,79,-99.99,,,0.00,weatherlink.com 1.10,2013-02-05 14:16:00,
2013-02-05 09:31:00,22.0,16.0,30.01,NE,41,0.0,-999.0,78,-99.99,,,0.00,weatherlink.com 1.10,2013-02-05 14:31:00,
2013-02-05 09:47:00,22.2,16.0,30.01,NE,49,0.0,-999.0,78,-99.99,,,0.00,weatherlink.com 1.10,2013-02-05 14:47:00,
2013-02-05 10:01:00,22.5,17.0,30.01,NE,48,0.0,-999.0,78,-99.99,,,0.00,weatherlink.com 1.10,2013-02-05 15:01:00,
2013-02-05 10:17:00,22.7,17.0,30.01,NE,50,4.0,-999.0,79,-99.99,,,0.00,weatherlink.com 1.10,2013-02-05 15:17:00,
2013-02-05 10:31:00,23.1,17.0,30.02,NE,54,0.0,-999.0,78,-99.99,,,0.00,weatherlink.com 1.10,2013-02-05 15:31:00,
2013-02-05 10:46:00,23.2,17.0,30.02,NE,55,0.0,-999.0,76,-99.99,,,0.00,weatherlink.com 1.10,2013-02-05 15:46:00,
2013-02-05 11:01:00,23.2,17.0,30.01,NE,56,0.0,-999.0,76,-99.99,,,0.00,weatherlink.com 1.10,2013-02-05 16:01:00,
2013-02-05 11:16:00,23.7,17.0,30.01,NE,56,0.0,-999.0,76,-99.99,,,0.00,weatherlink.com 1.10,2013-02-05 16:16:00,
2013-02-05 11:31:00,24.0,17.0,30.00,NE,56,0.0,-999.0,76,-99.99,,,0.00,weatherlink.com 1.10,2013-02-05 16:31:00,
2013-02-05 11:47:00,24.3,18.0,30.00,NE,56,0.0,-999.0,76,-99.99,,,0.00,weatherlink.com 1.10,2013-02-05 16:47:00,
2013-02-05 12:01:00,24.9,18.0,29.99,NE,56,0.0,-999.0,75,-99.99,,,0.00,weatherlink.com 1.10,2013-02-05 17:01:00,
2013-02-05 12:16:00,25.3,18.0,29.98,ENE,57,0.0,-999.0,74,-99.99,,,0.00,weatherlink.com 1.10,2013-02-05 17:16:00,
2013-02-05 12:31:00,25.4,18.0,29.98,SSE,147,0.0,-999.0,73,-99.99,,,0.00,weatherlink.com 1.10,2013-02-05 17:31:00,
2013-02-05 12:49:00,25.7,18.0,29.98,SSE,147,0.0,-999.0,71,-99.99,,,0.00,weatherlink.com 1.10,2013-02-05 17:49:00,
2013-02-05 13:01:00,26.0,18.0,29.97,SSE,147,0.0,-999.0,73,-99.99,,,0.00,weatherlink.com 1.10,2013-02-05 18:01:00,
2013-02-05 13:17:00,25.6,18.0,29.98,SE,145,0.0,-999.0,72,-99.99,,,0.00,weatherlink.com 1.10,2013-02-05 18:17:00,
2013-02-05 13:31:00,25.8,18.0,29.97,SE,145,0.0,-999.0,71,-99.99,,,0.00,weatherlink.com 1.10,2013-02-05 18:31:00,
2013-02-05 13:46:00,26.0,17.0,29.97,SE,145,0.0,-999.0,70,-99.99,,,0.00,weatherlink.com 1.10,2013-02-05 18:46:00,
2013-02-05 14:02:00,26.1,18.0,29.96,SE,145,0.0,-999.0,71,-99.99,,,0.00,weatherlink.com 1.10,2013-02-05 19:02:00,
2013-02-05 14:16:00,26.4,18.0,29.96,SE,145,0.0,-999.0,71,-99.99,,,0.00,weatherlink.com 1.10,2013-02-05 19:16:00,
2013-02-05 14:31:00,26.6,18.0,29.95,SE,145,0.0,-999.0,70,-99.99,,,0.00,weatherlink.com 1.10,2013-02-05 19:31:00,
2013-02-05 14:46:00,26.3,17.0,29.94,East,83,0.0,-999.0,69,-99.99,,,0.00,weatherlink.com 1.10,2013-02-05 19:46:00,
2013-02-05 15:04:00,26.1,18.0,29.94,East,83,1.0,-999.0,70,-99.99,,,0.00,weatherlink.com 1.10,2013-02-05 20:04:00,
2013-02-05 15:16:00,26.1,18.0,29.94,East,84,0.0,-999.0,71,-99.99,,,0.00,weatherlink.com 1.10,2013-02-05 20:16:00,
2013-02-05 15:31:00,26.1,18.0,29.94,East,84,0.0,-999.0,71,-99.99,,,0.00,weatherlink.com 1.10,2013-02-05 20:31:00,
2013-02-05 15:49:00,26.2,18.0,29.95,East,83,0.0,-999.0,71,-99.99,,,0.00,weatherlink.com 1.10,2013-02-05 20:49:00,
2013-02-05 16:01:00,26.3,18.0,29.95,East,84,0.0,-999.0,71,-99.99,,,0.00,weatherlink.com 1.10,2013-02-05 21:01:00,
2013-02-05 16:17:00,26.3,18.0,29.95,East,83,0.0,-999.0,71,-99.99,,,0.00,weatherlink.com 1.10,2013-02-05 21:17:00,
2013-02-05 16:31:00,26.3,18.0,29.95,East,84,0.0,-999.0,72,-99.99,,,0.00,weatherlink.com 1.10,2013-02-05 21:31:00,
2013-02-05 16:47:00,26.1,20.0,29.94,East,84,0.0,-999.0,76,-99.99,,,0.00,weatherlink.com 1.10,2013-02-05 21:47:00,
2013-02-05 17:02:00,25.5,20.0,29.94,East,83,0.0,-999.0,78,-99.99,,,0.00,weatherlink.com 1.10,2013-02-05 22:02:00,
2013-02-05 17:16:00,25.2,20.0,29.94,East,83,0.0,-999.0,80,-99.99,,,0.00,weatherlink.com 1.10,2013-02-05 22:16:00,
2013-02-05 17:31:00,25.0,20.0,29.94,East,84,0.0,-999.0,81,-99.99,,,0.00,weatherlink.com 1.10,2013-02-05 22:31:00,
2013-02-05 17:46:00,24.8,20.0,29.94,East,84,0.0,-999.0,82,-99.99,,,0.00,weatherlink.com 1.10,2013-02-05 22:46:00,
2013-02-05 18:01:00,24.7,21.0,29.94,East,84,0.0,-999.0,84,-99.99,,,0.00,weatherlink.com 1.10,2013-02-05 23:01:00,
2013-02-05 18:17:00,24.6,21.0,29.94,East,83,0.0,-999.0,85,-99.99,,,0.00,weatherlink.com 1.10,2013-02-05 23:17:00,
2013-02-05 18:32:00,24.6,21.0,29.94,East,83,0.0,-999.0,86,-99.99,,,0.00,weatherlink.com 1.10,2013-02-05 23:32:00,
2013-02-05 18:46:00,24.4,21.0,29.94,East,84,0.0,-999.0,86,-99.99,,,0.00,weatherlink.com 1.10,2013-02-05 23:46:00,
2013-02-05 19:01:00,24.1,21.0,29.95,East,84,0.0,-999.0,87,-99.99,,,0.00,weatherlink.com 1.10,2013-02-06 00:01:00,
2013-02-05 19:17:00,23.9,21.0,29.95,East,84,0.0,-999.0,87,-99.99,,,0.00,weatherlink.com 1.10,2013-02-06 00:17:00,
2013-02-05 19:31:00,24.0,21.0,29.95,East,84,0.0,-999.0,88,-99.99,,,0.00,weatherlink.com 1.10,2013-02-06 00:31:00,
2013-02-05 19:47:00,23.9,21.0,29.95,East,83,0.0,-999.0,88,-99.99,,,0.00,weatherlink.com 1.10,2013-02-06 00:47:00,
2013-02-05 20:01:00,23.9,21.0,29.95,East,84,0.0,-999.0,87,-99.99,,,0.00,weatherlink.com 1.10,2013-02-06 01:01:00,
2013-02-05 20:16:00,24.0,21.0,29.95,East,83,0.0,-999.0,88,-99.99,,,0.00,weatherlink.com 1.10,2013-02-06 01:16:00,
2013-02-05 20:32:00,24.2,21.0,29.95,East,84,0.0,-999.0,88,-99.99,,,0.00,weatherlink.com 1.10,2013-02-06 01:32:00,
2013-02-05 20:46:00,24.2,21.0,29.94,East,84,0.0,-999.0,88,-99.99,,,0.00,weatherlink.com 1.10,2013-02-06 01:46:00,
2013-02-05 21:01:00,24.2,21.0,29.95,East,83,0.0,-999.0,88,-99.99,,,0.00,weatherlink.com 1.10,2013-02-06 02:01:00,
2013-02-05 21:16:00,24.2,21.0,29.94,East,83,0.0,-999.0,88,-99.99,,,0.00,weatherlink.com 1.10,2013-02-06 02:16:00,
2013-02-05 21:31:00,24.1,21.0,29.95,East,84,0.0,-999.0,88,-99.99,,,0.00,weatherlink.com 1.10,2013-02-06 02:31:00,
2013-02-05 21:47:00,24.1,21.0,29.95,East,84,0.0,-999.0,88,-99.99,,,0.00,weatherlink.com 1.10,2013-02-06 02:47:00,
2013-02-05 22:02:00,24.1,21.0,29.95,East,84,0.0,-999.0,88,-99.99,,,0.00,weatherlink.com 1.10,2013-02-06 03:02:00,
2013-02-05 22:17:00,24.1,21.0,29.95,East,84,0.0,-999.0,88,-99.99,,,0.00,weatherlink.com 1.10,2013-02-06 03:17:00,
2013-02-05 22:32:00,24.2,21.0,29.95,East,83,0.0,-999.0,88,-99.99,,,0.00,weatherlink.com 1.10,2013-02-06 03:32:00,
2013-02-05 22:47:00,24.2,21.0,29.95,East,84,0.0,-999.0,88,-99.99,,,0.00,weatherlink.com 1.10,2013-02-06 03:47:00,
2013-02-05 23:02:00,24.2,21.0,29.95,East,83,0.0,-999.0,88,-99.99,,,0.00,weatherlink.com 1.10,2013-02-06 04:02:00,
2013-02-05 23:17:00,24.3,21.0,29.95,East,84,0.0,-999.0,88,-99.99,,,0.00,weatherlink.com 1.10,2013-02-06 04:17:00,
2013-02-05 23:32:00,24.3,21.0,29.95,East,84,0.0,-999.0,88,-99.99,,,0.00,weatherlink.com 1.10,2013-02-06 04:32:00,
2013-02-05 23:47:00,24.5,22.0,29.95,East,83,0.0,-999.0,88,-99.99,,,0.00,weatherlink.com 1.10,2013-02-06 04:47:00,